QPF
0.00 0.01 0.03 0.04 0.12 0.08 0.00 0.00 0.00 0.00 0.00 0.00 0.00 0.01 0.01 0.02 0.21 0.13 0.00 0.00 0.00 0.00 0.00 0.00 0.00 0.00 0.00 0.00 0.00 0.01 0.00 0.00 0.00 0.00 0.00 0.04 0.02 0.00 0.01 0.00 0.00 0.03 0.01 0.01 0.00 0.00 0.01 0.01 0.00
0.01 0.04 0.06 0.45 0.21 0.01 0.00 0.00 0.00 0.00 0.00 0.00 0.00 0.06 0.35 0.03 0.00 0.00 0.00 0.00 0.00 0.00 0.00 0.00 0.00 0.00 0.00 0.00 0.00 0.00 0.00 0.00 0.00 0.00 0.00 0.01 0.01 0.01 0.06 0.02 0.01 0.03 0.02 0.00 0.00 0.00 0.00 0.01 0.00
0.01 0.03 0.26 0.44 0.15 0.09 0.00 0.00 0.00 0.00 0.00 0.00 0.06 0.03 0.22 0.03 0.00 0.00 0.00 0.00 0.00 0.00 0.00 0.00 0.00 0.00 0.00 0.00 0.00 0.00 0.00 0.00 0.00 0.00 0.00 0.00 0.00 0.02 0.03 0.05 0.02 0.04 0.03 0.01 0.00 0.00 0.00 0.01 0.00
0.03 0.79 0.51 0.11 0.05 0.02 0.00 0.00 0.00 0.00 0.00 0.00 0.13 0.04 0.00 0.00 0.00 0.00 0.00 0.00 0.00 0.00 0.00 0.00 0.00 0.00 0.00 0.00 0.00 0.00 0.00 0.00 0.00 0.00 0.00 0.01 0.01 0.00 0.00 0.01 0.01 0.01 0.02 0.00 0.00 0.00 0.02 0.02 0.00
0.44 0.49 0.23 0.01 0.01 0.00 0.00 0.00 0.00 0.00 0.00 0.00 0.02 0.01 0.00 0.00 0.00 0.00 0.00 0.00 0.00 0.00 0.00 0.00 0.00 0.00 0.00 0.00 0.00 0.00 0.00 0.00 0.00 0.00 0.00 0.00 0.00 0.01 0.02 0.00 0.00 0.01 0.01 0.00 0.01 0.01 0.00 0.00 0.00
0.69 0.30 0.07 0.05 0.01 0.01 0.02 0.02 0.39 0.05 0.01 0.00 0.00 0.00 0.00 0.00 0.00 0.00 0.00 0.00 0.00 0.00 0.00 0.00 0.00 0.00 0.00 0.00 0.00 0.00 0.00 0.00 0.00 0.00 0.00 0.00 0.01 0.01 0.03 0.02 0.01 0.00 0.02 0.02 0.01 0.00 0.00 0.00 0.00
0.10 0.28 0.10 0.08 0.05 0.00 0.13 0.09 0.23 0.11 0.16 0.01 0.00 0.00 0.00 0.00 0.00 0.00 0.00 0.00 0.00 0.00 0.00 0.00 0.00 0.00 0.00 0.00 0.00 0.00 0.00 0.00 0.00 0.00 0.00 0.00 0.00 0.00 0.01 0.05 0.04 0.00 0.02 0.02 0.01 0.00 0.00 0.00 0.00
0.00 0.10 0.15 0.14 0.24 0.03 0.02 0.03 0.00 0.01 0.00 0.00 0.01 0.01 0.00 0.00 0.00 0.00 0.00 0.00 0.00 0.00 0.00 0.00 0.00 0.00 0.00 0.00 0.00 0.01 0.00 0.00 0.00 0.00 0.00 0.00 0.00 0.00 0.01 0.07 0.01 0.00 0.01 0.01 0.00 0.00 0.00 0.00 0.00
0.00 0.00 0.00 0.04 0.12 0.08 0.02 0.01 0.00 0.01 0.00 0.00 0.00 0.00 0.00 0.00 0.00 0.00 0.00 0.00 0.00 0.00 0.00 0.00 0.00 0.00 0.00 0.00 0.00 0.00 0.00 0.00 0.00 0.00 0.00 0.02 0.03 0.04 0.03 0.05 0.01 0.00 0.01 0.01 0.00 0.00 0.01 0.02 0.00
0.00 0.00 0.00 0.00 0.00 0.16 0.05 0.00 0.04 0.04 0.02 0.00 0.00 0.00 0.00 0.00 0.00 0.00 0.00 0.00 0.00 0.00 0.00 0.00 0.00 0.00 0.00 0.00 0.00 0.02 0.00 0.00 0.00 0.00 0.00 0.08 0.04 0.16 0.26 0.04 0.01 0.00 0.00 0.00 0.00 0.00 0.04 0.07 0.01
0.00 0.00 0.00 0.00 0.00 0.00 0.02 0.01 0.00 0.08 0.06 0.00 0.00 0.00 0.00 0.00 0.00 0.00 0.00 0.00 0.00 0.00 0.00 0.00 0.00 0.00 0.00 0.03 0.00 0.00 0.00 0.00 0.01 0.00 0.02 0.02 0.04 0.11 0.14 0.01 0.00 0.00 0.00 0.00 0.00 0.00 0.08 0.46 0.67
0.00 0.00 0.00 0.00 0.00 0.00 0.00 0.00 0.00 0.00 0.00 0.00 0.00 0.00 0.00 0.00 0.00 0.00 0.00 0.00 0.00 0.00 0.00 0.00 0.00 0.00 0.00 0.00 0.00 0.00 0.00 0.00 0.00 0.00 0.00 0.00 0.02 0.00 0.00 0.00 0.00 0.02 0.00 0.02 0.03 0.02 0.04 0.18 0.11
0.00 0.00 0.00 0.00 0.00 0.00 0.09 0.09 0.01 0.00 0.00 0.00 0.00 0.00 0.00 0.00 0.00 0.00 0.00 0.00 0.00 0.00 0.00 0.00 0.00 0.00 0.00 0.00 0.00 0.00 0.00 0.00 0.00 0.00 0.00 0.00 0.00 0.00 0.00 0.00 0.00 0.05 0.01 0.02 0.10 0.57 0.05 0.06 0.04
0.00 0.00 0.00 0.00 0.00 0.06 0.10 0.20 0.13 0.00 0.00 0.00 0.00 0.00 0.00 0.00 0.00 0.00 0.00 0.00 0.00 0.00 0.00 0.00 0.00 0.00 0.00 0.00 0.00 0.00 0.00 0.00 0.06 0.00 0.00 0.00 0.00 0.01 0.00 0.00 0.00 0.01 0.01 0.02 0.06 0.13 0.04 0.03 0.01
0.00 0.00 0.00 0.00 0.00 0.02 0.02 0.66 0.11 0.00 0.00 0.00 0.00 0.00 0.00 0.00 0.00 0.00 0.00 0.00 0.00 0.00 0.00 0.00 0.00 0.00 0.00 0.00 0.00 0.00 0.00 0.00 0.00 0.00 0.00 0.00 0.00 0.01 0.02 0.01 0.01 0.00 0.00 0.01 0.11 0.09 0.01 0.00 0.00
0.00 0.00 0.00 0.00 0.00 0.00 0.00 0.07 0.00 0.00 0.00 0.00 0.00 0.00 0.00 0.00 0.00 0.00 0.00 0.00 0.00 0.00 0.00 0.00 0.00 0.00 0.00 0.00 0.00 0.00 0.00 0.00 0.00 0.00 0.00 0.00 0.02 0.09 0.12 0.01 0.00 0.00 0.00 0.00 0.01 0.04 0.00 0.00 0.01
0.00 0.00 0.00 0.00 0.00 0.00 0.00 0.00 0.00 0.00 0.00 0.00 0.00 0.00 0.00 0.00 0.00 0.00 0.00 0.00 0.00 0.00 0.00 0.00 0.00 0.00 0.00 0.00 0.00 0.00 0.00 0.00 0.00 0.00 0.00 0.00 0.01 0.08 0.07 0.04 0.00 0.00 0.01 0.05 0.00 0.00 0.00 0.01 0.03
0.00 0.00 0.00 0.00 0.00 0.00 0.00 0.00 0.00 0.00 0.00 0.00 0.00 0.00 0.00 0.00 0.00 0.00 0.00 0.00 0.00 0.00 0.00 0.00 0.00 0.00 0.00 0.00 0.00 0.00 0.00 0.00 0.00 0.00 0.00 0.00 0.00 0.02 0.03 0.03 0.02 0.00 0.02 0.06 0.04 0.12 0.03 0.07 0.16
0.00 0.00 0.00 0.00 0.00 0.00 0.00 0.00 0.00 0.00 0.00 0.00 0.00 0.00 0.00 0.00 0.00 0.00 0.00 0.00 0.00 0.00 0.00 0.00 0.00 0.00 0.00 0.00 0.00 0.00 0.00 0.00 0.00 0.00 0.00 0.00 0.00 0.01 0.03 0.06 0.05 0.05 0.02 0.04 0.06 0.22 0.03 0.04 0.07
0.00 0.00 0.00 0.00 0.00 0.00 0.00 0.00 0.00 0.00 0.00 0.00 0.00 0.00 0.00 0.00 0.00 0.00 0.00 0.00 0.00 0.00 0.00 0.00 0.00 0.00 0.00 0.00 0.00 0.00 0.00 0.00 0.00 0.00 0.00 0.00 0.00 0.01 0.01 0.05 0.06 0.03 0.02 0.08 0.09 0.04 0.08 0.06 0.01
0.00 0.00 0.00 0.00 0.00 0.00 0.00 0.00 0.00 0.00 0.00 0.00 0.00 0.00 0.00 0.00 0.00 0.00 0.00 0.00 0.00 0.00 0.00 0.00 0.00 0.00 0.00 0.00 0.00 0.00 0.00 0.00 0.00 0.00 0.00 0.00 0.00 0.00 0.00 0.05 0.07 0.06 0.06 0.06 0.18 0.29 0.16 0.10 0.02
0.00 0.00 0.00 0.00 0.00 0.00 0.00 0.00 0.00 0.00 0.00 0.00 0.00 0.00 0.00 0.00 0.00 0.00 0.00 0.00 0.00 0.00 0.00 0.00 0.00 0.00 0.00 0.00 0.00 0.00 0.00 0.00 0.00 0.00 0.00 0.00 0.00 0.00 0.00 0.02 0.04 0.08 0.03 0.10 0.03 0.09 0.25 0.15 0.05
0.00 0.00 0.00 0.00 0.00 0.00 0.00 0.00 0.00 0.00 0.00 0.00 0.00 0.00 0.00 0.00 0.00 0.00 0.00 0.00 0.00 0.00 0.00 0.00 0.00 0.00 0.00 0.00 0.00 0.00 0.00 0.00 0.00 0.00 0.00 0.00 0.01 0.00 0.00 0.01 0.04 0.07 0.05 0.06 0.11 0.13 0.30 0.22 0.10
0.00 0.00 0.00 0.00 0.00 0.00 0.00 0.00 0.00 0.00 0.00 0.00 0.00 0.00 0.00 0.00 0.00 0.00 0.00 0.00 0.00 0.00 0.00 0.00 0.00 0.00 0.00 0.00 0.00 0.00 0.00 0.00 0.00 0.00 0.00 0.00 0.00 0.00 0.00 0.00 0.02 0.01 0.03 0.10 0.11 0.18 0.17 0.15 0.23
0.00 0.00 0.00 0.00 0.00 0.00 0.00 0.00 0.00 0.00 0.00 0.00 0.00 0.00 0.00 0.00 0.00 0.00 0.00 0.00 0.00 0.00 0.00 0.00 0.00 0.00 0.00 0.00 0.00 0.00 0.00 0.00 0.00 0.00 0.00 0.00 0.00 0.00 0.00 0.01 0.02 0.00 0.06 0.12 0.16 0.15 0.15 0.17 0.23
0.00 0.00 0.00 0.00 0.00 0.00 0.00 0.00 0.00 0.00 0.00 0.00 0.00 0.00 0.00 0.00 0.00 0.00 0.00 0.00 0.00 0.00 0.00 0.00 0.00 0.00 0.00 0.00 0.00 0.00 0.00 0.00 0.00 0.00 0.00 0.00 0.00 0.00 0.00 0.01 0.02 0.03 0.08 0.05 0.06 0.05 0.05 0.05 0.03
0.00 0.00 0.00 0.00 0.00 0.00 0.00 0.00 0.00 0.00 0.00 0.00 0.00 0.00 0.00 0.00 0.00 0.00 0.00 0.00 0.00 0.00 0.00 0.00 0.00 0.00 0.00 0.00 0.00 0.00 0.00 0.00 0.00 0.00 0.00 0.00 0.00 0.00 0.00 0.01 0.01 0.03 0.05 0.04 0.03 0.02 0.03 0.04 0.06
0.00 0.00 0.00 0.00 0.00 0.00 0.00 0.00 0.00 0.00 0.00 0.00 0.00 0.00 0.00 0.00 0.00 0.00 0.00 0.00 0.00 0.00 0.00 0.00 0.00 0.00 0.00 0.00 0.00 0.00 0.00 0.00 0.00 0.00 0.00 0.00 0.00 0.00 0.00 0.04 0.03 0.02 0.03 0.03 0.05 0.02 0.05 0.03 0.08
0.00 0.00 0.00 0.00 0.00 0.00 0.00 0.00 0.00 0.00 0.00 0.00 0.00 0.00 0.00 0.00 0.00 0.00 0.00 0.00 0.00 0.00 0.00 0.00 0.00 0.00 0.00 0.00 0.00 0.00 0.00 0.00 0.00 0.00 0.00 0.00 0.00 0.00 0.00 0.02 0.01 0.00 0.01 0.02 0.04 0.03 0.03 0.02 0.05
0.00 0.00 0.00 0.00 0.00 0.00 0.00 0.00 0.00 0.00 0.00 0.00 0.00 0.00 0.00 0.00 0.00 0.00 0.00 0.00 0.00 0.00 0.00 0.00 0.00 0.00 0.00 0.00 0.00 0.00 0.00 0.00 0.00 0.00 0.00 0.00 0.00 0.00 0.00 0.00 0.00 0.01 0.00 0.01 0.05 0.05 0.04 0.07 0.04
MSLP
1008.57 1008.44 1008.14 1008.27 1007.83 1005.20 1003.01 1001.29 1000.23 1000.06 1000.45 1001.01 1001.71 1004.14 1005.67 1005.22 1006.26 1007.35 1007.78 1008.63 1010.24 1011.64 1012.79 1013.36 1013.88 1014.31 1014.70 1015.01 1015.24 1015.54 1015.83 1016.03 1016.14 1016.27 1016.36 1016.56 1016.66 1016.75 1016.80 1017.08 1017.23 1017.25 1017.54 1017.65 1017.81 1017.88 1017.91 1018.03 1018.26
1007.40 1007.35 1008.84 1008.26 1006.43 1004.11 1002.43 1000.90 1000.52 1000.49 1001.21 1001.82 1003.15 1005.17 1006.52 1005.59 1005.15 1006.44 1007.49 1009.04 1010.47 1011.69 1012.51 1013.39 1014.11 1014.49 1014.95 1015.20 1015.33 1015.66 1015.96 1016.20 1016.34 1016.50 1016.66 1016.80 1016.92 1017.07 1017.29 1017.34 1017.51 1017.67 1017.78 1017.94 1018.11 1018.13 1018.28 1018.39 1018.49
1007.49 1007.38 1008.36 1006.84 1005.32 1003.93 1002.05 1001.01 1000.85 1001.28 1001.73 1001.68 1004.52 1004.69 1007.16 1005.94 1005.55 1006.17 1007.76 1009.17 1010.47 1011.49 1012.47 1013.71 1014.24 1014.65 1015.13 1015.40 1015.62 1015.92 1016.12 1016.33 1016.50 1016.70 1016.81 1016.93 1017.09 1017.23 1017.41 1017.51 1017.73 1017.91 1018.00 1018.11 1018.26 1018.42 1018.60 1018.64 1018.67
1007.81 1008.32 1008.08 1005.92 1005.08 1003.59 1002.09 1001.61 1001.06 1001.26 1001.71 1003.26 1005.33 1005.48 1006.18 1005.46 1005.41 1006.79 1007.95 1008.96 1010.16 1011.09 1012.69 1014.01 1014.42 1014.76 1015.14 1015.56 1015.84 1016.04 1016.19 1016.43 1016.66 1016.82 1016.94 1016.99 1017.19 1017.35 1017.56 1017.69 1017.83 1018.03 1018.19 1018.39 1018.59 1018.74 1019.03 1019.01 1018.92
1006.55 1007.16 1007.14 1005.06 1004.73 1003.37 1002.72 1002.87 1003.11 1002.16 1001.91 1003.25 1004.14 1005.60 1005.73 1005.12 1005.94 1007.10 1007.68 1008.44 1009.47 1011.49 1012.99 1014.03 1014.59 1014.96 1015.30 1015.68 1015.97 1016.15 1016.30 1016.51 1016.74 1016.91 1017.05 1017.22 1017.32 1017.51 1017.66 1017.86 1018.06 1018.31 1018.51 1018.78 1019.06 1019.11 1019.25 1019.24 1019.08
1006.02 1004.38 1005.14 1006.35 1005.54 1003.95 1004.55 1004.19 1004.42 1006.24 1003.42 1002.52 1003.61 1004.78 1005.59 1005.51 1006.38 1007.05 1007.40 1008.42 1010.05 1011.57 1012.77 1014.05 1014.83 1015.24 1015.50 1015.85 1016.13 1016.37 1016.47 1016.60 1016.87 1016.99 1017.17 1017.26 1017.39 1017.56 1017.78 1017.89 1018.19 1018.53 1018.74 1019.01 1019.15 1019.31 1019.39 1019.47 1019.37
1005.05 1005.74 1005.21 1006.11 1006.40 1004.44 1006.78 1007.22 1005.72 1005.75 1004.51 1002.48 1003.80 1004.71 1005.54 1005.67 1006.52 1006.85 1007.37 1008.88 1009.90 1011.18 1012.72 1013.87 1014.70 1015.33 1015.70 1016.00 1016.28 1016.52 1016.62 1016.74 1016.88 1017.04 1017.25 1017.34 1017.50 1017.70 1017.87 1018.10 1018.34 1018.63 1018.98 1019.16 1019.38 1019.67 1019.80 1019.86 1019.82
1003.29 1005.32 1006.54 1006.14 1005.65 1005.09 1003.47 1003.85 1004.25 1003.68 1003.09 1003.31 1003.42 1004.34 1005.47 1005.84 1006.40 1006.80 1007.51 1008.43 1009.58 1011.16 1012.49 1013.55 1014.49 1015.18 1015.61 1016.06 1016.41 1016.63 1016.72 1016.84 1016.90 1017.04 1017.19 1017.50 1017.86 1018.19 1018.36 1018.42 1018.51 1018.75 1019.10 1019.39 1019.72 1019.88 1020.00 1020.13 1020.18
1001.26 1002.77 1004.20 1005.39 1005.79 1005.46 1003.47 1002.36 1002.60 1002.11 1002.13 1002.49 1002.60 1003.89 1004.74 1005.83 1006.47 1006.92 1007.66 1008.37 1009.61 1010.84 1012.02 1013.01 1014.03 1014.72 1015.15 1015.67 1016.36 1016.71 1016.81 1016.91 1016.96 1017.06 1017.30 1017.72 1018.19 1018.54 1019.04 1018.94 1018.81 1018.79 1019.18 1019.56 1019.80 1019.95 1020.25 1020.50 1020.51
1000.05 1001.03 1001.33 1001.54 1003.36 1003.30 1002.64 1002.34 1004.06 1003.66 1002.92 1002.56 1003.86 1004.54 1005.35 1005.96 1006.63 1007.09 1007.85 1008.36 1009.17 1010.41 1011.27 1012.26 1013.27 1014.20 1014.44 1014.74 1015.99 1016.34 1016.61 1016.65 1016.77 1016.80 1017.40 1017.82 1017.77 1018.50 1018.86 1019.24 1019.12 1018.81 1019.10 1019.53 1019.90 1020.37 1020.57 1020.92 1021.07
999.37 999.97 1000.09 1000.50 1001.39 1002.07 1003.21 1002.78 1003.29 1003.19 1002.81 1002.24 1003.84 1004.87 1005.74 1006.13 1006.79 1007.27 1007.93 1008.45 1008.99 1009.70 1010.56 1011.87 1012.86 1013.63 1013.91 1014.83 1015.49 1015.79 1015.99 1016.00 1016.43 1016.61 1017.42 1017.61 1017.98 1018.38 1019.11 1019.24 1019.19 1018.88 1019.07 1019.56 1020.19 1020.63 1020.83 1021.12 1021.16
999.24 999.25 999.60 1000.11 1000.86 1001.77 1002.80 1002.48 1003.05 1002.53 1001.95 1002.24 1003.84 1004.81 1005.69 1006.23 1006.68 1007.11 1007.64 1008.21 1008.74 1009.31 1010.46 1011.19 1012.50 1013.10 1013.57 1014.30 1014.77 1014.95 1015.35 1015.55 1015.87 1016.12 1016.77 1017.44 1018.04 1017.78 1018.21 1018.58 1018.46 1018.58 1018.94 1019.70 1019.95 1020.19 1021.08 1021.07 1021.03
999.22 999.36 999.22 999.80 1000.92 1003.00 1003.82 1007.05 1006.01 1003.23 1002.48 1002.80 1003.88 1004.84 1005.60 1006.18 1006.61 1006.99 1007.37 1007.96 1008.53 1009.34 1009.85 1010.47 1011.73 1012.66 1013.42 1013.86 1014.02 1014.66 1015.13 1014.97 1015.49 1015.87 1016.36 1016.72 1017.15 1017.78 1017.84 1017.93 1017.80 1018.43 1018.98 1019.51 1020.61 1020.42 1021.19 1021.60 1021.57
999.94 999.51 999.22 999.45 1000.59 1003.98 1007.89 1009.46 1007.90 1003.65 1002.59 1002.99 1003.87 1004.55 1005.22 1005.96 1006.49 1006.92 1007.34 1007.80 1008.25 1009.10 1009.91 1010.37 1011.49 1012.33 1012.83 1013.44 1013.97 1014.53 1014.88 1014.78 1015.40 1015.63 1015.96 1016.49 1016.80 1017.38 1017.55 1017.54 1017.53 1018.19 1018.54 1019.47 1020.07 1020.88 1021.09 1021.42 1021.21
1000.05 999.55 998.93 999.42 1000.29 1004.13 1004.27 1008.21 1006.84 1004.24 1002.73 1002.99 1003.55 1004.27 1004.85 1005.56 1006.19 1006.75 1007.32 1007.87 1008.23 1008.88 1009.68 1010.44 1011.46 1012.40 1013.09 1013.27 1013.58 1013.81 1013.85 1014.50 1015.00 1015.68 1015.92 1016.26 1016.62 1016.79 1017.05 1017.26 1017.75 1017.87 1018.22 1019.00 1019.81 1020.55 1020.93 1021.19 1021.22
999.78 999.29 999.03 999.25 999.97 1000.37 1001.66 1003.61 1003.51 1003.48 1002.03 1002.55 1003.15 1003.98 1004.62 1005.16 1005.55 1006.31 1006.96 1007.63 1008.18 1008.65 1009.54 1010.35 1011.04 1012.10 1013.13 1013.38 1013.72 1013.82 1013.68 1014.00 1014.48 1015.42 1015.83 1016.24 1016.80 1017.12 1017.27 1017.43 1017.35 1017.73 1018.29 1018.74 1019.50 1020.21 1020.76 1021.21 1021.35
999.23 998.78 998.82 998.72 999.05 999.69 999.97 1000.05 1001.08 1001.09 1000.89 1001.85 1002.63 1003.39 1004.03 1004.62 1005.04 1005.81 1006.46 1007.24 1007.93 1008.49 1009.46 1010.35 1011.07 1011.80 1012.76 1013.27 1013.74 1013.97 1013.82 1013.92 1014.30 1014.72 1015.55 1016.05 1016.65 1017.25 1017.49 1017.51 1017.43 1017.48 1017.90 1018.68 1019.27 1019.85 1020.49 1021.27 1021.77
999.25 999.09 998.75 998.51 998.68 999.24 999.58 999.10 999.19 999.43 999.91 1000.73 1001.90 1002.72 1003.50 1004.21 1004.76 1005.54 1006.22 1006.92 1007.70 1008.36 1009.35 1010.27 1011.05 1011.69 1012.50 1013.07 1013.67 1014.05 1013.97 1014.16 1014.29 1014.61 1014.95 1015.72 1016.36 1016.92 1017.32 1017.59 1017.66 1017.60 1018.13 1018.82 1019.75 1020.59 1020.92 1021.06 1021.44
999.21 999.24 998.88 998.78 998.70 998.94 999.29 999.24 998.80 998.42 998.91 999.58 1000.73 1001.43 1002.51 1003.52 1004.35 1005.23 1006.03 1006.73 1007.49 1008.33 1009.20 1010.18 1011.10 1011.69 1012.40 1012.90 1013.53 1013.84 1014.14 1014.22 1014.49 1014.43 1015.07 1015.58 1015.96 1016.46 1016.94 1017.45 1017.59 1017.67 1018.16 1018.56 1019.43 1019.97 1020.82 1020.97 1021.30
999.62 999.51 999.29 999.07 998.65 998.73 998.95 999.03 998.65 997.88 997.70 998.29 999.06 1000.18 1001.09 1002.26 1003.42 1004.49 1005.56 1006.30 1007.12 1008.06 1009.06 1010.09 1010.97 1011.62 1012.12 1012.65 1013.18 1013.47 1013.70 1013.94 1014.26 1014.38 1014.78 1015.27 1015.79 1016.23 1016.58 1017.14 1017.58 1017.50 1017.71 1018.29 1018.84 1019.30 1019.77 1020.26 1020.71
999.83 999.67 999.38 999.20 998.87 998.69 998.85 998.58 997.98 997.28 997.11 997.40 997.62 998.45 999.89 1000.72 1002.08 1003.51 1004.68 1005.58 1006.59 1007.45 1008.62 1009.71 1010.69 1011.44 1012.02 1012.43 1012.85 1013.24 1013.45 1013.69 1013.95 1014.23 1014.74 1015.06 1015.50 1016.01 1016.37 1016.60 1017.09 1017.29 1017.48 1017.85 1018.15 1018.48 1018.97 1019.42 1019.98
999.84 999.51 999.20 999.22 999.14 998.99 998.48 997.77 997.01 996.74 996.40 996.53 996.97 999.04 999.09 999.66 1000.92 1002.17 1003.52 1004.67 1005.60 1006.67 1007.92 1009.18 1010.28 1011.21 1011.90 1012.23 1012.51 1012.86 1013.20 1013.38 1013.62 1013.91 1014.22 1014.76 1015.07 1015.52 1015.91 1016.29 1016.52 1016.93 1016.90 1017.43 1017.64 1017.71 1017.93 1018.56 1018.85
999.87 999.71 999.78 999.81 999.57 999.30 998.69 997.91 996.58 996.16 995.84 995.80 996.47 996.82 996.96 998.11 999.26 1000.61 1002.00 1003.45 1004.50 1005.83 1007.20 1008.36 1009.66 1010.76 1011.49 1012.03 1012.13 1012.51 1012.84 1013.05 1013.27 1013.39 1013.67 1014.09 1014.81 1014.95 1015.26 1015.63 1016.09 1016.51 1016.81 1016.84 1017.06 1017.18 1017.63 1018.11 1018.08
1000.16 1000.19 1000.03 1000.10 999.85 999.10 998.31 997.63 996.25 995.35 995.43 995.40 995.84 996.07 996.79 997.38 998.01 999.28 1000.69 1002.30 1003.55 1004.74 1006.09 1007.39 1008.81 1009.95 1010.87 1011.62 1012.01 1012.17 1012.45 1012.71 1012.88 1013.04 1013.17 1013.64 1014.17 1014.62 1014.71 1014.97 1015.33 1015.74 1016.18 1016.11 1016.39 1016.85 1016.96 1017.32 1017.78
1000.07 1000.05 999.79 999.44 998.74 997.86 996.82 996.58 995.69 995.09 995.25 995.50 995.70 995.99 996.33 996.92 997.13 998.36 999.82 1001.13 1002.46 1003.55 1004.87 1006.32 1007.76 1008.95 1009.96 1010.83 1011.45 1011.89 1012.02 1012.38 1012.46 1012.56 1012.76 1012.97 1013.41 1013.66 1014.00 1014.19 1014.54 1015.01 1015.33 1015.64 1015.89 1016.43 1016.71 1017.02 1017.34
999.56 999.69 999.37 998.80 997.91 996.82 995.83 995.23 994.72 994.91 995.09 995.62 995.99 995.98 996.10 996.08 995.46 996.27 998.61 1000.20 1001.53 1002.74 1003.99 1005.11 1006.83 1008.04 1008.97 1009.78 1010.55 1011.17 1011.64 1011.81 1012.06 1012.18 1012.30 1012.49 1012.62 1012.73 1012.75 1013.37 1013.86 1014.18 1014.57 1015.07 1015.27 1015.94 1016.33 1016.54 1016.82
999.76 999.71 999.31 998.88 998.52 997.83 996.47 995.15 994.78 994.99 995.28 995.78 995.96 995.97 996.39 996.20 994.69 995.92 998.09 999.64 1000.89 1002.02 1003.23 1004.35 1005.91 1007.19 1008.05 1008.94 1009.72 1010.37 1011.00 1011.38 1011.44 1011.80 1011.98 1012.14 1012.19 1012.23 1012.36 1012.92 1013.40 1013.82 1014.19 1014.54 1014.89 1015.36 1015.72 1015.91 1016.15
999.55 999.65 999.29 998.83 998.74 998.25 997.12 995.76 994.86 995.08 995.41 995.94 996.35 996.57 996.97 997.34 997.18 997.12 997.93 999.25 1000.45 1001.51 1002.58 1003.86 1004.90 1006.17 1007.10 1007.95 1008.77 1009.46 1010.17 1010.75 1011.12 1011.29 1011.59 1011.69 1011.86 1012.02 1012.14 1012.64 1012.97 1013.29 1013.72 1014.05 1014.50 1014.81 1015.01 1015.29 1015.56
998.84 999.21 999.23 999.25 998.66 997.85 997.00 995.93 995.27 994.90 995.59 996.28 996.87 997.27 997.92 998.48 998.31 997.79 998.08 998.93 1000.21 1001.22 1002.16 1003.25 1004.36 1005.32 1006.21 1007.04 1007.62 1008.52 1009.15 1009.81 1010.50 1010.82 1010.82 1011.13 1011.36 1011.56 1011.85 1012.21 1012.60 1012.82 1013.22 1013.68 1014.05 1014.33 1014.62 1014.86 1015.18
998.32 998.23 998.28 998.46 998.80 998.37 997.39 996.42 996.21 996.15 996.35 996.87 997.45 998.18 998.94 999.53 999.40 999.13 998.66 999.01 999.88 1000.98 1001.79 1002.73 1003.84 1004.66 1005.44 1006.04 1006.78 1007.53 1008.37 1009.00 1009.44 1009.97 1010.28 1010.52 1010.72 1011.04 1011.35 1011.70 1012.18 1012.56 1012.85 1013.21 1013.66 1013.96 1014.20 1014.52 1014.72
Thickness
5829 5827 5830 5814 5790 5805 5814 5821 5849 5839 5836 5852 5850 5816 5799 5813 5788 5769 5822 5820 5809 5798 5787 5782 5779 5776 5773 5770 5769 5767 5765 5763 5763 5762 5762 5760 5759 5758 5756 5752 5750 5753 5753 5755 5756 5758 5759 5759 5758
5840 5839 5814 5801 5785 5799 5814 5842 5832 5843 5848 5854 5840 5813 5795 5806 5832 5821 5820 5818 5809 5799 5792 5785 5780 5777 5773 5771 5770 5768 5765 5764 5764 5763 5761 5760 5760 5758 5757 5756 5754 5754 5756 5757 5757 5759 5758 5759 5759
5841 5836 5798 5782 5800 5800 5813 5842 5842 5848 5854 5856 5815 5829 5786 5809 5831 5830 5830 5820 5811 5803 5795 5785 5781 5778 5775 5772 5770 5768 5767 5766 5765 5764 5763 5763 5762 5761 5760 5760 5759 5758 5759 5759 5759 5759 5759 5759 5760
5837 5820 5815 5804 5801 5822 5839 5848 5857 5853 5857 5838 5813 5811 5818 5839 5833 5831 5831 5827 5816 5808 5795 5785 5782 5780 5777 5774 5772 5770 5770 5768 5767 5766 5765 5765 5764 5764 5762 5762 5762 5761 5760 5760 5759 5759 5758 5759 5761
5802 5807 5790 5823 5824 5841 5850 5841 5836 5848 5854 5840 5837 5808 5813 5843 5846 5838 5835 5834 5822 5807 5795 5787 5782 5780 5778 5776 5774 5773 5772 5771 5769 5768 5768 5767 5767 5766 5765 5764 5763 5762 5761 5759 5758 5758 5758 5760 5762
5802 5803 5794 5774 5813 5842 5833 5840 5827 5792 5834 5853 5839 5827 5820 5847 5840 5838 5840 5834 5821 5807 5798 5789 5783 5780 5779 5777 5775 5774 5773 5773 5771 5771 5770 5770 5769 5768 5767 5766 5765 5763 5762 5760 5760 5759 5759 5760 5762
5810 5795 5796 5812 5795 5832 5791 5813 5813 5806 5812 5847 5850 5820 5829 5838 5843 5845 5842 5833 5824 5811 5800 5792 5786 5782 5780 5778 5776 5775 5775 5775 5774 5774 5773 5773 5772 5771 5770 5768 5767 5764 5762 5761 5760 5757 5756 5756 5757
5850 5818 5796 5812 5798 5807 5848 5850 5847 5844 5843 5862 5856 5825 5814 5837 5847 5847 5842 5834 5827 5815 5803 5796 5790 5785 5782 5780 5777 5776 5776 5777 5777 5776 5776 5774 5771 5768 5767 5768 5769 5766 5763 5762 5757 5757 5756 5756 5756
5891 5834 5803 5799 5786 5806 5854 5863 5874 5878 5866 5866 5865 5848 5849 5848 5847 5841 5834 5831 5825 5818 5810 5802 5795 5791 5788 5784 5780 5778 5777 5778 5779 5779 5778 5773 5766 5763 5759 5763 5769 5770 5766 5761 5759 5760 5756 5753 5755
5877 5845 5852 5870 5839 5837 5859 5868 5848 5846 5845 5855 5846 5853 5851 5846 5839 5832 5826 5823 5823 5817 5816 5812 5804 5796 5795 5793 5785 5782 5780 5780 5782 5783 5778 5771 5775 5770 5765 5761 5766 5772 5769 5764 5762 5756 5754 5752 5751
5885 5856 5877 5878 5880 5871 5856 5866 5859 5843 5830 5859 5840 5841 5843 5842 5836 5831 5828 5827 5825 5826 5823 5817 5809 5802 5800 5794 5789 5788 5787 5787 5785 5786 5779 5775 5776 5772 5767 5763 5766 5773 5771 5766 5760 5753 5755 5756 5755
5869 5886 5885 5884 5888 5886 5874 5890 5869 5866 5865 5874 5860 5854 5847 5839 5836 5834 5831 5831 5829 5828 5824 5823 5813 5809 5803 5799 5796 5795 5794 5793 5792 5790 5786 5779 5774 5780 5775 5770 5776 5777 5775 5764 5762 5758 5753 5759 5756
5876 5880 5891 5893 5889 5876 5851 5806 5829 5864 5877 5877 5866 5857 5848 5843 5841 5842 5841 5839 5836 5827 5828 5828 5820 5813 5806 5803 5802 5797 5795 5797 5796 5793 5791 5788 5785 5779 5780 5781 5784 5781 5776 5767 5757 5755 5749 5751 5751
5882 5884 5888 5897 5891 5837 5808 5793 5805 5858 5884 5871 5862 5856 5854 5848 5845 5843 5841 5837 5837 5832 5827 5829 5821 5816 5812 5809 5804 5800 5798 5800 5797 5796 5795 5791 5789 5787 5786 5788 5788 5782 5779 5769 5766 5756 5754 5752 5757
5884 5867 5887 5889 5890 5836 5851 5790 5804 5854 5878 5866 5862 5859 5857 5854 5852 5844 5843 5838 5839 5836 5832 5827 5821 5815 5810 5810 5807 5806 5806 5801 5800 5796 5795 5794 5791 5790 5790 5790 5787 5784 5783 5777 5768 5762 5759 5760 5760
5871 5877 5853 5882 5885 5890 5870 5814 5849 5856 5877 5864 5864 5860 5858 5857 5856 5853 5849 5844 5843 5839 5831 5828 5826 5818 5810 5809 5806 5806 5807 5806 5803 5798 5795 5793 5790 5788 5788 5787 5788 5786 5784 5780 5775 5771 5766 5761 5758
5873 5853 5860 5872 5893 5882 5878 5861 5867 5881 5883 5869 5866 5863 5861 5859 5861 5859 5856 5850 5845 5841 5832 5826 5823 5818 5811 5809 5805 5804 5806 5806 5805 5801 5797 5795 5790 5786 5786 5787 5787 5787 5785 5782 5777 5773 5766 5758 5754
5848 5852 5865 5863 5886 5881 5868 5876 5893 5891 5887 5879 5871 5867 5863 5860 5860 5862 5859 5856 5850 5844 5835 5828 5822 5818 5812 5809 5805 5803 5805 5805 5805 5803 5801 5797 5793 5789 5787 5786 5786 5787 5784 5779 5771 5762 5761 5759 5755
5875 5862 5859 5872 5889 5874 5864 5866 5883 5902 5893 5882 5879 5874 5869 5864 5868 5866 5861 5858 5851 5844 5835 5827 5819 5814 5809 5803 5799 5799 5798 5802 5803 5804 5801 5797 5795 5792 5790 5786 5786 5785 5782 5780 5772 5765 5759 5758 5756
5863 5852 5851 5870 5888 5878 5867 5862 5882 5898 5903 5896 5890 5881 5879 5874 5871 5867 5862 5858 5852 5844 5835 5827 5819 5813 5807 5804 5805 5805 5804 5805 5804 5803 5802 5799 5796 5793 5791 5788 5785 5785 5786 5781 5777 5774 5769 5765 5762
5853 5846 5850 5852 5873 5881 5867 5856 5872 5898 5908 5908 5909 5899 5890 5885 5876 5870 5864 5861 5855 5847 5838 5829 5821 5816 5812 5811 5809 5807 5807 5806 5803 5802 5801 5801 5798 5794 5792 5791 5788 5787 5786 5782 5781 5774 5771 5768 5766
5834 5869 5869 5859 5849 5824 5875 5829 5874 5891 5898 5905 5907 5886 5883 5890 5889 5881 5872 5865 5860 5854 5848 5836 5827 5819 5815 5813 5809 5806 5802 5799 5803 5804 5805 5802 5800 5798 5795 5792 5790 5788 5788 5787 5786 5786 5780 5772 5771
5844 5868 5856 5852 5842 5841 5848 5839 5869 5894 5887 5899 5905 5906 5914 5904 5897 5889 5882 5875 5870 5862 5852 5844 5833 5824 5818 5814 5814 5810 5806 5807 5808 5810 5808 5807 5802 5801 5799 5796 5793 5791 5789 5790 5789 5788 5777 5767 5779
5864 5850 5850 5847 5839 5809 5843 5844 5856 5882 5890 5903 5910 5916 5911 5912 5907 5900 5895 5884 5874 5870 5860 5851 5838 5829 5823 5817 5814 5812 5809 5808 5807 5808 5808 5807 5805 5803 5801 5800 5798 5794 5792 5794 5793 5791 5789 5785 5781
5850 5833 5803 5802 5814 5815 5871 5853 5867 5900 5904 5903 5902 5908 5913 5909 5911 5901 5894 5885 5877 5871 5865 5857 5845 5834 5830 5822 5818 5814 5812 5810 5809 5810 5810 5808 5806 5806 5805 5806 5803 5800 5797 5794 5794 5790 5788 5785 5781
5841 5837 5813 5788 5811 5839 5884 5851 5875 5908 5913 5908 5907 5909 5913 5911 5911 5909 5901 5891 5883 5876 5870 5864 5851 5841 5837 5830 5823 5820 5816 5815 5813 5813 5813 5811 5811 5812 5815 5810 5807 5804 5801 5797 5796 5792 5789 5787 5785
5833 5818 5855 5831 5844 5828 5854 5883 5898 5904 5897 5896 5900 5905 5900 5905 5905 5910 5903 5896 5887 5881 5875 5869 5857 5848 5843 5836 5830 5824 5819 5816 5816 5814 5815 5814 5815 5816 5817 5811 5808 5805 5803 5801 5799 5795 5791 5789 5787
5841 5852 5816 5832 5790 5785 5828 5848 5860 5874 5877 5884 5886 5890 5889 5892 5901 5907 5904 5897 5891 5886 5881 5874 5867 5855 5849 5843 5836 5830 5824 5820 5818 5817 5814 5815 5816 5816 5815 5813 5810 5807 5805 5802 5799 5796 5795 5791 5788
5835 5824 5831 5833 5832 5810 5811 5839 5884 5887 5881 5874 5881 5882 5876 5882 5890 5902 5904 5901 5893 5888 5882 5875 5867 5860 5854 5850 5845 5837 5832 5827 5823 5820 5821 5819 5819 5818 5815 5812 5810 5808 5805 5803 5799 5797 5795 5791 5788
5853 5844 5847 5816 5805 5826 5828 5831 5884 5886 5884 5879 5873 5870 5869 5877 5883 5893 5900 5899 5892 5886 5882 5875 5869 5863 5860 5856 5851 5844 5838 5833 5829 5826 5825 5825 5823 5822 5819 5815 5810 5808 5806 5805 5801 5797 5796 5792 5788